Drummond Island, MI

3:38 PM EST on February 27, 2017 (GMT -0500)
Drummond Island

Weather History for KDRM - May, 2013

Change the Weather History Date:

Saturday, May 18, 2013

  Actual Average (KCIU) Record (KCIU)
Temperature  
Mean Temperature 50 °F -  
Max Temperature 63 °F 64 °F 80 °F (1989)
Min Temperature 36 °F 40 °F 23 °F (1981)
Degree Days  
Heating Degree Days 16    
Moisture  
Dew Point 39 °F    
Average Humidity 63    
Maximum Humidity 97    
Minimum Humidity 40    
Precipitation  
Precipitation 0.00 in - - ()
Sea Level Pressure  
Sea Level Pressure 30.18 in    
Wind  
Wind Speed 3 mph (SE)    
Max Wind Speed 13 mph    
Max Gust Speed 18 mph    
Visibility 10 miles    
Events Rain    
Averages and records for this station are not official NWS values.
T = Trace of Precipitation, MM = Missing Value Source: NWS Daily Summary

Daily Weather History Graph

Daily Weather History Graph

Search for Another Location

Airport or City:

Trip Planner

Search our weather history database for the weather conditions in past years. The results will help you decide how hot, cold, wet, or windy it might be!

Date:

Astronomy

May. 18, 2013 Rise Set
Actual Time 5:59 AM EDT 9:04 PM EDT
Civil Twilight 5:23 AM EDT 9:40 PM EDT
Nautical Twilight 4:37 AM EDT 10:26 PM EDT
Astronomical Twilight 3:42 AM EDT 11:22 PM EDT
Moon 1:44 PM EDT (5/18) 2:14 AM EDT (5/18)
Length of Visible Light 16h 16m
Length of Day
15h 05m
First Quarter, 55% of the Moon is Illuminated
May 18
First Quarter
May 25
Full
May 31
Last Quarter
Jun 8
New
Jun 16
First Quarter

Hourly Weather History & Observations

Time (EDT) Temp. Dew Point Humidity Pressure Visibility Wind Dir Wind Speed Gust Speed Precip Events Conditions
12:16 AM 42.3 °F 37.2 °F 82% 30.21 in 10.0 mi Calm Calm - N/A   Clear
12:36 AM 41.4 °F 37.4 °F 86% 30.21 in 10.0 mi Calm Calm - N/A   Clear
12:55 AM 40.5 °F 37.2 °F 88% 30.21 in 10.0 mi Calm Calm - N/A   Clear
1:16 AM 40.3 °F 36.7 °F 87% 30.21 in 10.0 mi Calm Calm - N/A   Clear
1:36 AM 39.2 °F 36.5 °F 90% 30.20 in 10.0 mi Calm Calm - N/A   Clear
1:55 AM 39.0 °F 36.5 °F 91% 30.20 in 10.0 mi Calm Calm - N/A   Clear
2:16 AM 38.3 °F 36.5 °F 93% 30.20 in 10.0 mi Calm Calm - N/A   Clear
2:36 AM 38.3 °F 36.5 °F 93% 30.19 in 10.0 mi Calm Calm - N/A   Clear
2:55 AM 36.7 °F 35.6 °F 96% 30.19 in 10.0 mi Calm Calm - N/A   Clear
3:16 AM 37.4 °F 36.5 °F 97% 30.20 in 10.0 mi Calm Calm - N/A   Clear
3:36 AM 37.4 °F 36.5 °F 97% 30.20 in 10.0 mi Calm Calm - N/A   Clear
3:55 AM 36.5 °F 35.6 °F 97% 30.20 in 10.0 mi Calm Calm - N/A   Clear
4:16 AM 37.9 °F 37.2 °F 97% 30.21 in 10.0 mi Calm Calm - N/A   Clear
4:35 AM 37.9 °F 36.7 °F 95% 30.22 in 10.0 mi Calm Calm - N/A   Clear
4:56 AM 38.5 °F 37.0 °F 95% 30.23 in 10.0 mi Calm Calm - N/A   Clear
5:16 AM 39.9 °F 37.4 °F 91% 30.22 in 10.0 mi Calm Calm - N/A   Clear
5:35 AM 39.7 °F 38.1 °F 94% 30.22 in 10.0 mi Calm Calm - N/A   Clear
5:56 AM 40.5 °F 37.9 °F 91% 30.21 in 10.0 mi Calm Calm - N/A   Clear
6:16 AM 41.4 °F 37.6 °F 86% 30.22 in 10.0 mi Calm Calm - N/A   Clear
6:35 AM 42.3 °F 37.8 °F 84% 30.23 in 10.0 mi Calm Calm - N/A   Clear
6:56 AM 43.3 °F 38.1 °F 82% 30.23 in 10.0 mi Calm Calm - N/A   Clear
7:15 AM 45.1 °F 39.0 °F 79% 30.23 in 10.0 mi Calm Calm - N/A   Clear
7:36 AM 47.8 °F 38.5 °F 70% 30.23 in 10.0 mi Calm Calm - N/A   Clear
7:56 AM 48.4 °F 39.4 °F 71% 30.23 in 10.0 mi East 3.5 mph - N/A   Clear
8:15 AM 50.0 °F 39.4 °F 67% 30.23 in 10.0 mi East 4.6 mph - N/A   Clear
8:36 AM 52.3 °F 39.4 °F 61% 30.23 in 10.0 mi East 5.8 mph - N/A   Clear
8:55 AM 54.5 °F 39.6 °F 57% 30.23 in 10.0 mi ESE 4.6 mph - N/A   Clear
9:16 AM 55.9 °F 39.4 °F 54% 30.24 in 10.0 mi ESE 5.8 mph - N/A   Clear
9:35 AM 58.6 °F 39.4 °F 49% 30.24 in 10.0 mi East 6.9 mph - N/A   Clear
9:56 AM 60.4 °F 38.7 °F 45% 30.23 in 10.0 mi ESE 12.7 mph - N/A   Clear
10:16 AM 61.7 °F 37.8 °F 41% 30.23 in 10.0 mi ESE 9.2 mph - N/A   Clear
10:35 AM 61.9 °F 38.7 °F 42% 30.23 in 10.0 mi SSE 9.2 mph - N/A   Clear
10:56 AM 60.3 °F 38.7 °F 45% 30.23 in 10.0 mi SSE 11.5 mph 18.4 mph N/A   Clear
11:16 AM 59.9 °F 39.2 °F 46% 30.23 in 10.0 mi ESE 10.4 mph 17.3 mph N/A   Clear
11:35 AM 60.1 °F 39.2 °F 46% 30.24 in 10.0 mi SE 9.2 mph - N/A   Clear
11:56 AM 60.4 °F 38.5 °F 44% 30.23 in 10.0 mi SE 8.1 mph 18.4 mph N/A   Clear
12:16 PM 61.2 °F 39.0 °F 44% 30.23 in 10.0 mi SSE 9.2 mph - N/A   Clear
12:35 PM 62.4 °F 38.8 °F 42% 30.22 in 10.0 mi SE 8.1 mph - N/A   Clear
12:56 PM 63.9 °F 39.9 °F 41% 30.21 in 10.0 mi SSE 8.1 mph - N/A   Clear
1:16 PM 63.5 °F 38.8 °F 40% 30.21 in 10.0 mi SE 6.9 mph - N/A   Clear
1:35 PM 62.6 °F 38.3 °F 41% 30.20 in 10.0 mi ESE 9.2 mph - N/A   Clear
1:56 PM 62.8 °F 37.9 °F 40% 30.20 in 10.0 mi SSE 9.2 mph - N/A   Scattered Clouds
2:15 PM 62.1 °F 37.8 °F 41% 30.19 in 10.0 mi SE 11.5 mph - N/A   Scattered Clouds
2:36 PM 61.9 °F 38.8 °F 43% 30.19 in 10.0 mi SSE 6.9 mph - N/A   Mostly Cloudy
3:16 PM 60.8 °F 39.4 °F 45% 30.18 in 10.0 mi SSE 9.2 mph - N/A   Overcast
3:36 PM 60.3 °F 40.3 °F 48% 30.18 in 10.0 mi SE 5.8 mph - N/A   Overcast
3:55 PM 58.6 °F 38.8 °F 48% 30.17 in 10.0 mi SSE 9.2 mph - N/A   Overcast
4:16 PM 57.9 °F 38.8 °F 49% 30.16 in 10.0 mi SSE 4.6 mph - N/A   Overcast
4:36 PM 58.3 °F 39.2 °F 49% 30.15 in 10.0 mi SE 8.1 mph - N/A   Overcast
4:55 PM 58.3 °F 39.7 °F 50% 30.15 in 10.0 mi SE 6.9 mph - N/A   Overcast
5:16 PM 57.9 °F 39.4 °F 50% 30.15 in 10.0 mi SSE 4.6 mph - N/A   Overcast
5:36 PM 57.4 °F 39.2 °F 51% 30.15 in 10.0 mi SE 4.6 mph - N/A   Overcast
6:16 PM 59.0 °F 39.2 °F 48% 30.13 in 10.0 mi ESE 5.8 mph - N/A   Overcast
6:36 PM 59.0 °F 39.0 °F 48% 30.12 in 10.0 mi ESE 5.8 mph - N/A   Overcast
6:55 PM 58.8 °F 39.4 °F 49% 30.13 in 10.0 mi SE 3.5 mph - N/A   Overcast
7:16 PM 58.5 °F 39.4 °F 49% 30.12 in 10.0 mi ESE 5.8 mph - N/A   Overcast
7:36 PM 58.1 °F 39.9 °F 51% 30.12 in 10.0 mi Calm Calm - N/A   Overcast
7:55 PM 58.1 °F 39.4 °F 50% 30.10 in 10.0 mi ESE 4.6 mph - N/A   Overcast
8:16 PM 57.6 °F 40.1 °F 52% 30.12 in 10.0 mi ESE 4.6 mph - N/A   Overcast
8:35 PM 57.6 °F 40.5 °F 53% 30.11 in 10.0 mi East 4.6 mph - N/A Rain Light Rain
8:56 PM 57.6 °F 40.8 °F 54% 30.10 in 10.0 mi ESE 4.6 mph - N/A   Overcast
9:15 PM 57.7 °F 40.3 °F 52% 30.10 in 10.0 mi ESE 3.5 mph - N/A   Overcast
9:35 PM 58.1 °F 40.6 °F 52% 30.10 in 10.0 mi ESE 3.5 mph - N/A   Overcast
9:56 PM 58.1 °F 40.3 °F 52% 30.10 in 10.0 mi ESE 4.6 mph - N/A   Overcast
10:15 PM 57.6 °F 40.3 °F 53% 30.10 in 10.0 mi ESE 3.5 mph - N/A   Overcast
10:36 PM 57.2 °F 40.5 °F 54% 30.09 in 10.0 mi ESE 3.5 mph - N/A   Overcast
10:56 PM 56.8 °F 41.0 °F 55% 30.09 in 10.0 mi SE 3.5 mph - N/A   Overcast
11:15 PM 56.7 °F 41.2 °F 56% 30.08 in 10.0 mi SE 5.8 mph - N/A   Overcast
11:36 PM 57.0 °F 41.0 °F 55% 30.08 in 10.0 mi ESE 6.9 mph - N/A   Overcast
11:56 PM 56.7 °F 41.0 °F 56% 30.08 in 10.0 mi ESE 5.8 mph - N/A   Overcast